www.pogodaiklimat.ru

Погода и климат >> Архив погоды >> Россия >> Ханты-Мансийский АО >> Угут


АРХИВ ПОГОДЫ в Угуте

Время (UTC), дата Ветер
(напр.,м/с)
 
Видим.   Явления Облачность Т
(С)
Тd
(С)
f
(%)
Тe
(С)
Тes
(С)
Комфортность P
(гПа)
Po
(гПа)
Тmin
(С)
Tmax
(С)
R
(мм)
R24
(мм)
S
(см)
00 15.09 штиль 0 500 м туман 10/10 300 м
[St]
+11.0 +10.1 94 +10 +10 1009.9 1003.9
03 15.09 Ю 1 500 м туман 10/10 300 м
[St]
+11.3 +10.4 94 +11 +11 1010.1 1004.1 +10.4 0.0
06 15.09 Ю 2 1000 м дымка {туман} 10/10 300 м
[St]
+11.6 +10.6 94 +10 +10 1010.6 1004.6
09 15.09 Ю 2 10 км {дождь} 6/4 600 м
[Cb cap Ac trans]
+15.7 +12.3 80 +16 +18 1009.5 1003.6
12 15.09 Ю 1 10 км {дождь} 10/0
[Ac trans Cs]
+17.8 +13.1 74 +19 +19 1008.6 1002.8
15 15.09 Ю 1 10 км 10/0
[Ac trans Cs]
+15.6 +13.3 86 +16 +16 1008.3 1002.4 +18.8 0.4
18 15.09 Ю 2 10 км ясно +14.4 +11.3 82 +14 +14 1007.8 1001.9
21 15.09 Ю 1 10 км ясно +11.7 +9.9 89 +11 +11 1007.0 1001.0
00 16.09 Ю 1 10 км 3/0
[Ac trans]
+11.5 +9.1 85 +11 +11 1006.0 1000.0
03 16.09 Ю 2 10 км 4/0
[Ac trans Ci fib]
+13.2 +9.1 76 +13 +14 1005.7 999.8 +11.3
06 16.09 ЮЗ 2 10 км 8/1 600 м
[Cb cap Ac trans Ci fib]
+17.1 +9.5 61 +17 +20 1005.7 999.8
09 16.09 Ю 2 10 км 8/0
[Ac trans]
+20.7 +9.6 49 +23 +25 комфорт 1004.7 998.9
12 16.09 Ю 2 10 км 1/1 600 м
[Cu hum]
+20.4 +8.7 47 +22 +23 комфорт 1003.4 997.7
15 16.09 Ю 2 10 км зарница 4/3 600 м
[Cb cap Ac trans]
+16.7 +8.1 57 +17 +17 1002.2 996.3 +21.5
18 16.09 Ю 1
{14}
10 км {ливн. осадки} 8/3 600 м
[Cb cap Ac trans Ci fib]
+13.3 +8.0 70 +14 +14 1001.1 995.2
21 16.09 Ю 1
{12}
10 км в посл. час ливневой дождь 10/4 600 м
[Cb cap Cs]
+11.3 +9.2 87 +11 +11 1001.0 995.0
00 17.09 штиль 0 10 км в посл. час ливневой дождь 8/8 600 м
[Cb cap]
+10.2 +8.8 91 +9 +9 1000.2 994.2
03 17.09 ЮВ 1 4000 м {дождь} 10/5 1000 м
[Sc As op]
+10.4 +9.3 93 +10 +10 999.2 993.3 +10.1 4
06 17.09 З 1 10 км слаб. дождь 10/6 300 м
[Frnb As op]
+10.4 +9.2 92 +10 +10 999.0 993.0
09 17.09 З 2 10 км слаб. ливневой дождь 9/9 600 м
[Cb cap]
+10.6 +8.9 89 +9 +10 999.5 993.5
12 17.09 ЮЗ 1 10 км слаб. ливневой дождь 10/8 600 м
[Cb cap Cs]
+11.5 +8.7 83 +11 +11 1000.0 994.1
15 17.09 Ю 1 10 км слаб. ливневой дождь 9/9 600 м
[Cb cap]
+9.1 +7.7 91 +8 +8 1000.8 994.8 +12.1 6
18 17.09 ЮЗ 2 10 км слаб. ливневой дождь 10/8 300 м
[Frnb As op]
+9.3 +8.2 93 +7 +7 1000.8 994.8
21 17.09 ЮЗ 2 10 км {дождь} 10/0
[Ac As]
+9.1 +7.9 92 +7 +7 1001.6 995.6
00 18.09 ЮЗ 3 10 км {дождь} 10/0
[Ac As]
+9.5 +8.1 91 +7 +7 1003.0 997.0
03 18.09 ЮЗ 3 10 км {дождь} 10/8 300 м
[Frnb As op]
+9.7 +7.9 89 +7 +7 1003.9 997.9 +8.8 2
06 18.09 ЮЗ 3 10 км {дождь} 6/6 600 м
[Cb cap]
+12.0 +8.3 78 +10 +12 1004.5 998.5
09 18.09 Ю 2 10 км 10/3 600 м
[Cu hum Cs]
+14.8 +7.3 61 +15 +17 1004.2 998.3
12 18.09 Ю 2 10 км 8/0
[Ac trans Ci fib]
+15.2 +7.5 60 +15 +15 1002.7 996.8
15 18.09 Ю 2 10 км 4/0
[Ac trans Ci fib]
+13.0 +6.8 66 +12 +12 1001.9 996.0 +15.9
18 18.09 Ю 1 10 км 4/0
[Ci fib]
+11.5 +7.6 77 +11 +11 1000.9 994.9
21 18.09 Ю 1 10 км ясно +10.9 +8.6 86 +11 +11 999.7 993.7
00 19.09 Ю 1 10 км ливневой дождь 10/10 600 м
[Cb cap]
+10.4 +9.1 92 +10 +10 998.9 992.9
03 19.09 ЮЗ 2 10 км {ливн. осадки} 9/9 300 м
[Cb cap]
+10.5 +9.2 92 +9 +9 998.3 992.3 +10.2 0.0
06 19.09 ЮЗ 3 4000 м слаб. морось 10/10 300 м
[St]
+10.6 +9.2 91 +8 +8 999.5 993.5
09 19.09 ЮЗ 2 10 км {дождь, морось} 10/8 300 м
[Cb cap As trans]
+12.4 +10.1 86 +11 +12 999.8 993.8
12 19.09 Ю 2 10 км {дождь, морось} 10/4 600 м
[Cb cap Ac trans Cs]
+12.6 +9.8 83 +12 +12 999.2 993.3
15 19.09 Ю 1 10 км слаб. дождь 10/0
[As op]
+11.3 +9.6 89 +11 +11 996.6 990.7 +12.9 1
18 19.09 В 3 4000 м дождь 10/0
[As op]
+10.6 +9.6 94 +8 +8 987.1 981.3
21 19.09 Ю 3 10 км слаб. дождь 10/0 300 м
[As op]
+11.5 +10.4 93 +10 +10 980.9 975.0
00 20.09 Ю 4
{10}
10 км {дождь} 8/8 1000 м
[Sc]
+9.1 +5.6 79 +6 +6 980.6 974.7
03 20.09 ЮЗ 4
{10}
10 км 10/10 300 м
[Cb cap]
+7.9 +5.2 83 +5 +5 979.2 973.3 +7.6 17
06 20.09 З 7-11
{14}
10 км слаб. ливневой дождь 10/10 300 м
[Cb cap]
+7.2 +4.7 84 +2 +2 983.8 977.9 +6.8
09 20.09 З 7-14
{16}
10 км в посл. час ливневой дождь 10/10 300 м
[Cb cap]
+9.7 +6.2 79 +6 +6 991.2 985.3
12 20.09 ЮЗ 8-13
{15}
10 км слаб. ливневой дождь 8/6 300 м
[Cb cap Ac trans]
+8.3 +5.0 80 +4 +4 997.3 991.3
15 20.09 ЮЗ 6-12
{13}
10 км в посл. час ливневой дождь 10/10 300 м
[Cb cap]
+7.0 +4.3 83 +3 +3 1001.4 995.4 +10.0 1
18 20.09 З 5
{14}
10 км {ливн. осадки} 10/10 300 м
[Cb cap]
+5.8 +3.4 85 +1 +1 1003.7 997.6
21 20.09 ЮЗ 5 10 км 10/10 300 м
[Cb cap]
+6.0 +2.9 80 +2 +2 1005.5 999.4
00 21.09 ЮЗ 5 10 км 10/10 600 м
[Cb cap]
+5.6 +2.4 80 +1 +1 1007.5 1001.4
03 21.09 З 5
{10}
10 км 10/10 300 м
[Cb cap]
+5.3 +1.6 77 +1 +1 1010.3 1004.1 +4.9
06 21.09 З 5
{10}
10 км 8/8 600 м
[Cb cap]
+7.2 +0.2 61 +4 +4 1013.0 1006.8
09 21.09 З 6-10
{10}
10 км 8/8 600 м
[Cu hum]
+8.9 -2.7 44 +6 +6 1014.6 1008.5
12 21.09 З 3
{10}
10 км 4/4 600 м
[Cu hum]
+8.6 -2.1 47 +7 +7 1015.5 1009.4
15 21.09 Ю 1 10 км 3/0
[Ac trans]
+2.6 -0.4 81 +1 +1 1016.5 1010.3 +9.3
18 21.09 штиль 0 10 км ясно -0.8 -1.9 92 -2 -2 1016.4 1010.1

 

Местоположение метеостанции Угут (Ханты-Мансийский АО, Россия): широта 60.50 долгота 74.02 высота над уровнем моря 48 м.

В архиве по умолчанию представлена погода в Угуте за последнюю неделю. Архивные данные за месяц целиком и за предыдущие месяцы, начиная с января 2011 года, Вы можете получить, выбрав интересующий диапазон дат из раскрывающегося списка и нажав кнопку "Ввод!".


*Определитесь, кто Вы:
робот инопланетянин человек

Внимание! Время в таблицах - всемирное. Для получения местного времени необходимо прибавить поправку, которая равна 5 ч.

Смотрите также архив погоды в соседних городах и на ближайших метеорологических станциях:

Погода в Сургуте (Ханты-Мансийский АО, Россия) (98 км)
Погода в Нефтеюганске (Ханты-Мансийский АО, Россия) (99 км)
Погода в Таурово (Ханты-Мансийский АО, Россия) (110 км)
Погода в Нижневартовске (Ханты-Мансийский АО, Россия) (148 км)
Погода в Салыме (Ханты-Мансийский АО, Россия) (148 км)
Погода в Сытомино (Ханты-Мансийский АО, Россия) (172 км)
Погода в Когалыме (Ханты-Мансийский АО, Россия) (194 км)
Погода в Александровском (Томская область, Россия) (211 км)
Погода в Радужном (Ханты-Мансийский АО, Россия) (255 км)
Погода в Новом Васюгане (Томская область, Россия) (256 км)

Пояснения к столбцам:

Ветер - указаны скорость ветра в м/с - средняя за 10 мин, порывы в срок и между сроками (в фигурных скобках) и направление, откуда дует ветер: С - северный, СВ - северо-восточный, В - восточный, ЮВ - юго-восточный, Ю - южный, ЮЗ - юго-западный, З - западный, СЗ - северо-западный.
Видимость - горизонтальная дальность видимости в метрах или километрах. При видимости от 1 до 10 км при отсутствии осадков обычно наблюдается дымка, при ухудшении видимости до 1 км и менее - туман. В сухую погоду видимость может ухудшаться дымом, пылью или мглою.
Явления - указаны атмосферные явления, наблюдавшиеся в срок или в последний час перед сроком; фигурными скобками обозначены явления, наблюдавшиеся между сроками (за 1-3 часа до срока); квадратными скобками обозначены град или гололедные отложения с указанием их диаметра в мм.
Облачность - указаны через наклонную черту общая и нижняя облачность в баллах и высота нижней границы облаков в метрах; квадратными скобками обозначены формы облаков: Ci - перистые, Cs - перисто-слоистые, Cc - перисто-кучевые, Ac - высококучевые, As - высокослоистые, Sc - слоисто-кучевые, Ns - слоисто-дождевые, Cu - кучевые, Cb - кучево-дождевые. Подробнее классификацию облаков см. в Атласе облаков (PDF).
T - Температура воздуха - температура, измеренная на высоте 2 м над землей.
Td - Температура точки росы - температура, при понижении до которой содержащийся в воздухе водяной пар достигнет насыщения.
f - Относительная влажность воздуха - влажноcть воздуха, измеренная на высоте 2 м над землей.
Te - Эффективная температура - температура, которую ощущает одетый по сезону человек в тени. Характеристика душности погоды. При расчете учитывается влияние влажности воздуха и скорости ветра на теплоощущения человека.
Tes - Эффективная температура на солнце - температура, которую ощущает человек, с поправкой на солнечный нагрев. Характеристика знойности погоды. Зависит от высоты солнца над горизонтом, облачности и скорости ветра. Ночью, в пасмурную погоду, а также при ветре 12 м/с и более поправка равна нулю.
P - Атмосферное давление - приведенное к уровню моря атмосферное давление.
Po - Атмосферное давление - измеренное на уровне метеостанции атмосферное давление.
Tmin - Минимальная температура - минимум температуры воздуха на высоте 2 м над землей.
Tmax - Максимальная температура - максимум температуры воздуха на высоте 2 м над землей.
R - Количество осадков - Количество выпавших осадков за период времени, мм. При наведении курсора мыши на число - период времени, за который выпало указанное количество осадков.
R24 - Количество осадков - Количество выпавших осадков за 24 часа, мм.
S - Снежный покров - Высота снежного покрова, см. При наведении курсора мыши на число - состояние снежного покрова и степень покрытия местности в баллах.